Oxford, NC

2:07 AM EDT on September 20, 2017 (GMT -0400)
Henderson-Oxford

Weather History for KHNZ - October, 2012

Change the Weather History Date:

Friday, October 26, 2012

  Actual Average (KTDF) Record (KTDF)
Temperature  
Mean Temperature 62 °F -  
Max Temperature 69 °F 67 °F 80 °F (1975)
Min Temperature 55 °F 41 °F 26 °F (2013)
Degree Days  
Heating Degree Days 3    
Growing Degree Days 12 (Base 50)    
Moisture  
Dew Point 58 °F    
Average Humidity 85    
Maximum Humidity 100    
Minimum Humidity 68    
Precipitation  
Precipitation 0.04 in - - ()
Sea Level Pressure  
Sea Level Pressure 30.07 in    
Wind  
Wind Speed 6 mph (NE)    
Max Wind Speed 14 mph    
Max Gust Speed 17 mph    
Visibility 6 miles    
Events Fog , Rain    
Averages and records for this station are not official NWS values.
T = Trace of Precipitation, MM = Missing Value Source: NWS Daily Summary

Daily Weather History Graph

Daily Weather History Graph

Search for Another Location

Airport or City:

Trip Planner

Search our weather history database for the weather conditions in past years. The results will help you decide how hot, cold, wet, or windy it might be!

Date:

Astronomy

Oct. 26, 2012 Rise Set
Actual Time 7:31 AM EDT 6:23 PM EDT
Civil Twilight 7:05 AM EDT 6:50 PM EDT
Nautical Twilight 6:35 AM EDT 7:20 PM EDT
Astronomical Twilight 6:05 AM EDT 7:50 PM EDT
Moon 4:35 PM EDT (10/26) 4:30 AM EDT (10/26)
Length of Visible Light 11h 44m
Length of Day
10h 51m
Waxing Gibbous, 91% of the Moon is Illuminated
Oct 26
Waxing Gibbous
Oct 29
Full
Nov 6
Last Quarter
Nov 13
New
Nov 20
First Quarter

Hourly Weather History & Observations

Time (EDT) Temp. Dew Point Humidity Pressure Visibility Wind Dir Wind Speed Gust Speed Precip Events Conditions
12:15 AM 59.0 °F 55.4 °F 88% 30.11 in 10.0 mi ENE 4.6 mph - N/A   Clear
12:35 AM 59.0 °F 55.4 °F 88% 30.11 in 7.0 mi ENE 3.5 mph - N/A   Clear
12:55 AM 57.2 °F 55.4 °F 94% 30.12 in 7.0 mi East 3.5 mph - N/A   Clear
1:35 AM 55.4 °F 53.6 °F 94% 30.11 in 1.2 mi Calm Calm - N/A   Mist
1:55 AM 59.0 °F 55.4 °F 88% 30.11 in 1.2 mi NE 3.5 mph - N/A   Mostly Cloudy
2:15 AM 59.0 °F 57.2 °F 94% 30.11 in 0.5 mi NE 3.5 mph - N/A Fog Fog
2:35 AM 59.0 °F 57.2 °F 94% 30.11 in 0.2 mi ENE 5.8 mph - N/A Fog Fog
2:55 AM 59.0 °F 57.2 °F 94% 30.12 in 0.2 mi ENE 6.9 mph - N/A Fog Fog
3:15 AM 59.0 °F 57.2 °F 94% 30.11 in 0.2 mi ENE 8.1 mph - N/A Fog Fog
3:35 AM 59.0 °F 57.2 °F 94% 30.10 in 0.2 mi ENE 8.1 mph - N/A Fog Fog
3:55 AM 59.0 °F 57.2 °F 94% 30.11 in 0.2 mi ENE 8.1 mph - N/A Fog Fog
4:35 AM 59.0 °F 57.2 °F 94% 30.11 in 0.2 mi ENE 8.1 mph - N/A Fog Fog
4:55 AM 59.0 °F 57.2 °F 94% 30.11 in 0.2 mi ENE 5.8 mph - N/A Fog Fog
5:15 AM 59.0 °F 57.2 °F 94% 30.10 in 0.2 mi ENE 8.1 mph - N/A Fog Fog
5:35 AM 59.0 °F 57.2 °F 94% 30.11 in 0.2 mi NE 4.6 mph - N/A Fog Fog
5:55 AM 59.0 °F 57.2 °F 94% 30.11 in 0.5 mi NNE 6.9 mph - N/A Fog Fog
6:35 AM 59.0 °F 57.2 °F 94% 30.12 in 1.0 mi NNE 5.8 mph - N/A   Overcast
6:55 AM 59.0 °F 57.2 °F 94% 30.12 in 1.8 mi North 5.8 mph - N/A   Overcast
7:15 AM 59.0 °F 57.2 °F 94% 30.13 in 2.5 mi North 8.1 mph - N/A   Overcast
7:35 AM 59.0 °F 57.2 °F 94% 30.13 in 3.0 mi North 6.9 mph - N/A   Overcast
7:55 AM 59.0 °F 57.2 °F 94% 30.14 in 3.0 mi North 4.6 mph - N/A   Overcast
8:15 AM 59.0 °F 57.2 °F 94% 30.15 in 2.0 mi NNE 4.6 mph - N/A   Overcast
8:35 AM 59.0 °F 59.0 °F 100% 30.15 in 2.5 mi NNE 5.8 mph - N/A   Overcast
8:55 AM 59.0 °F 59.0 °F 100% 30.16 in 3.0 mi NNE 5.8 mph - N/A   Overcast
9:15 AM 59.0 °F 59.0 °F 100% 30.16 in 4.0 mi NNE 8.1 mph - N/A   Overcast
9:35 AM 59.0 °F 59.0 °F 100% 30.15 in 4.0 mi NNE 8.1 mph - N/A   Overcast
9:55 AM 60.8 °F 59.0 °F 94% 30.15 in 5.0 mi NNE 8.1 mph - N/A   Overcast
10:15 AM 62.6 °F 59.0 °F 88% 30.14 in 7.0 mi NNE 8.1 mph - N/A   Scattered Clouds
10:35 AM 64.4 °F 59.0 °F 83% 30.13 in 7.0 mi North 6.9 mph - N/A   Scattered Clouds
11:15 AM 68.0 °F 59.0 °F 73% 30.12 in 10.0 mi NE 6.9 mph - N/A   Scattered Clouds
11:35 AM 68.0 °F 59.0 °F 73% 30.12 in 10.0 mi ENE 10.4 mph - N/A   Scattered Clouds
11:55 AM 68.0 °F 59.0 °F 73% 30.12 in 10.0 mi NE 11.5 mph - N/A   Scattered Clouds
12:15 PM 69.8 °F 59.0 °F 68% 30.11 in 10.0 mi NE 10.4 mph - N/A   Clear
12:35 PM 69.8 °F 59.0 °F 68% 30.10 in 10.0 mi NNE 10.4 mph - N/A   Mostly Cloudy
12:55 PM 68.0 °F 59.0 °F 73% 30.09 in 10.0 mi NE 8.1 mph - N/A   Overcast
1:15 PM 68.0 °F 59.0 °F 73% 30.08 in 10.0 mi NE 8.1 mph - N/A   Overcast
1:35 PM 68.0 °F 59.0 °F 73% 30.06 in 10.0 mi NNE 8.1 mph - N/A   Overcast
1:55 PM 69.8 °F 59.0 °F 68% 30.05 in 10.0 mi NNE 4.6 mph - N/A   Mostly Cloudy
2:15 PM 69.8 °F 59.0 °F 68% 30.05 in 10.0 mi NNE 8.1 mph - N/A   Overcast
2:35 PM 68.0 °F 59.0 °F 73% 30.05 in 10.0 mi NE 10.4 mph - N/A   Overcast
2:55 PM 68.0 °F 59.0 °F 73% 30.04 in 10.0 mi NE 9.2 mph - N/A   Overcast
3:15 PM 69.8 °F 59.0 °F 68% 30.03 in 10.0 mi NE 9.2 mph - N/A   Mostly Cloudy
3:35 PM 69.8 °F 59.0 °F 68% 30.03 in 10.0 mi ENE 10.4 mph 17.3 mph N/A   Scattered Clouds
3:55 PM 69.8 °F 59.0 °F 68% 30.02 in 10.0 mi NE 9.2 mph - N/A   Scattered Clouds
4:15 PM 68.0 °F 59.0 °F 73% 30.02 in 10.0 mi ENE 13.8 mph - N/A   Mostly Cloudy
4:35 PM 68.0 °F 59.0 °F 73% 30.02 in 10.0 mi NNE 9.2 mph - N/A   Mostly Cloudy
4:55 PM 68.0 °F 59.0 °F 73% 30.02 in 10.0 mi NE 6.9 mph - N/A   Scattered Clouds
5:15 PM 68.0 °F 59.0 °F 73% 30.02 in 10.0 mi NE 8.1 mph - N/A   Mostly Cloudy
5:35 PM 66.2 °F 59.0 °F 78% 30.02 in 10.0 mi NNE 8.1 mph - N/A   Overcast
6:15 PM 66.2 °F 59.0 °F 78% 30.01 in 10.0 mi NNE 8.1 mph - N/A   Mostly Cloudy
6:35 PM 64.4 °F 59.0 °F 83% 30.02 in 10.0 mi NNE 5.8 mph - N/A   Overcast
6:55 PM 64.4 °F 59.0 °F 83% 30.02 in 10.0 mi NE 6.9 mph - N/A   Overcast
7:15 PM 64.4 °F 59.0 °F 83% 30.02 in 7.0 mi NNE 5.8 mph - N/A Rain Light Rain
7:35 PM 64.4 °F 59.0 °F 83% 30.02 in 10.0 mi NNE 5.8 mph - N/A   Overcast
7:55 PM 64.4 °F 59.0 °F 83% 30.03 in 10.0 mi NNE 6.9 mph - N/A   Overcast
8:15 PM 64.4 °F 59.0 °F 83% 30.02 in 10.0 mi North 5.8 mph - N/A   Overcast
8:35 PM 64.4 °F 59.0 °F 83% 30.02 in 10.0 mi NNE 8.1 mph - N/A   Overcast
8:55 PM 64.4 °F 59.0 °F 83% 30.02 in 7.0 mi NNE 4.6 mph - N/A   Overcast
9:15 PM 64.4 °F 59.0 °F 83% 30.02 in 7.0 mi NE 6.9 mph - N/A Rain Light Rain
9:35 PM 62.6 °F 60.8 °F 94% 30.01 in 4.0 mi NNE 5.8 mph - N/A   Heavy Drizzle
9:55 PM 62.6 °F 60.8 °F 94% 30.01 in 4.0 mi NNE 6.9 mph - 0.03 in Rain Rain
10:15 PM 62.6 °F 60.8 °F 94% 30.01 in 4.0 mi NNE 6.9 mph - 0.01 in   Drizzle
10:35 PM 62.6 °F 60.8 °F 94% 30.00 in 5.0 mi NNE 5.8 mph - 0.01 in   Drizzle
10:55 PM 62.6 °F 60.8 °F 94% 29.99 in 5.0 mi NNE 6.9 mph - 0.01 in   Overcast
11:35 PM 62.6 °F 60.8 °F 94% 29.98 in 5.0 mi NE 8.1 mph - N/A   Overcast
11:55 PM 62.6 °F 60.8 °F 94% 29.97 in 5.0 mi NNE 6.9 mph - N/A   Overcast